Time,TemperatureF,DewpointF,PressureIn,WindDirection,WindDirectionDegrees,WindSpeedMPH,WindSpeedGustMPH,Humidity,HourlyPrecipIn,Conditions,Clouds,dailyrainin,SoftwareType,DateUTC
2014-12-21 00:03:00,50.7,50.0,29.53,East,90,0.0,4.0,97,0.00,,,0.00,Rainwise IP-100,2014-12-21 08:03:00,
2014-12-21 00:08:00,50.6,50.0,29.53,SSW,202,2.0,5.0,97,0.00,,,0.00,Rainwise IP-100,2014-12-21 08:08:00,
2014-12-21 00:13:00,50.5,50.0,29.53,SSW,202,1.0,6.0,97,0.00,,,0.00,Rainwise IP-100,2014-12-21 08:13:00,
2014-12-21 00:18:00,50.4,50.0,29.55,North,360,4.0,7.0,97,0.00,,,0.00,Rainwise IP-100,2014-12-21 08:18:00,
2014-12-21 00:23:00,50.3,49.0,29.55,ENE,67,2.0,6.0,97,0.00,,,0.00,Rainwise IP-100,2014-12-21 08:23:00,
2014-12-21 00:28:00,50.2,49.0,29.55,NE,45,2.0,3.0,97,0.00,,,0.00,Rainwise IP-100,2014-12-21 08:28:00,
2014-12-21 00:33:00,50.0,49.0,29.55,ENE,67,4.0,4.0,97,0.00,,,0.00,Rainwise IP-100,2014-12-21 08:33:00,
2014-12-21 00:38:00,49.8,49.0,29.56,North,360,1.0,5.0,97,0.00,,,0.00,Rainwise IP-100,2014-12-21 08:38:00,
2014-12-21 00:43:00,49.8,49.0,29.56,North,360,1.0,11.0,97,0.06,,,0.01,Rainwise IP-100,2014-12-21 08:43:00,
2014-12-21 00:48:00,49.8,49.0,29.57,ENE,67,2.0,7.0,97,0.06,,,0.01,Rainwise IP-100,2014-12-21 08:48:00,
2014-12-21 00:53:00,49.5,49.0,29.57,NE,45,0.0,4.0,97,0.00,,,0.01,Rainwise IP-100,2014-12-21 08:53:00,
2014-12-21 00:58:00,49.3,48.0,29.57,SW,225,2.0,6.0,97,0.00,,,0.01,Rainwise IP-100,2014-12-21 08:58:00,
2014-12-21 01:03:00,49.2,48.0,29.57,SW,225,2.0,7.0,97,0.00,,,0.01,Rainwise IP-100,2014-12-21 09:03:00,
2014-12-21 01:08:00,48.9,48.0,29.58,SW,225,2.0,4.0,97,0.00,,,0.01,Rainwise IP-100,2014-12-21 09:08:00,
2014-12-21 01:13:00,48.9,48.0,29.58,NNE,22,0.0,4.0,97,0.00,,,0.01,Rainwise IP-100,2014-12-21 09:13:00,
2014-12-21 01:18:00,48.7,48.0,29.58,SW,225,2.0,2.0,97,0.00,,,0.01,Rainwise IP-100,2014-12-21 09:18:00,
2014-12-21 01:23:00,48.5,48.0,29.59,SSE,157,0.0,2.0,97,0.00,,,0.01,Rainwise IP-100,2014-12-21 09:23:00,
2014-12-21 01:28:00,48.3,47.0,29.59,SSW,202,1.0,2.0,97,0.00,,,0.01,Rainwise IP-100,2014-12-21 09:28:00,
2014-12-21 01:33:00,48.3,47.0,29.60,East,90,1.0,4.0,97,0.00,,,0.01,Rainwise IP-100,2014-12-21 09:33:00,
2014-12-21 01:38:00,48.2,47.0,29.61,NNE,22,4.0,4.0,97,0.00,,,0.01,Rainwise IP-100,2014-12-21 09:38:00,
2014-12-21 01:43:00,47.9,47.0,29.61,SW,225,0.0,5.0,97,0.00,,,0.01,Rainwise IP-100,2014-12-21 09:43:00,
2014-12-21 01:48:00,47.8,47.0,29.61,SW,225,0.0,2.0,97,0.00,,,0.01,Rainwise IP-100,2014-12-21 09:48:00,
2014-12-21 01:53:00,47.5,47.0,29.61,SSW,202,0.0,2.0,97,0.00,,,0.01,Rainwise IP-100,2014-12-21 09:53:00,
2014-12-21 01:58:00,47.4,47.0,29.62,SW,225,1.0,6.0,97,0.00,,,0.01,Rainwise IP-100,2014-12-21 09:58:00,
2014-12-21 02:03:00,47.3,46.0,29.63,SW,225,0.0,2.0,97,0.00,,,0.01,Rainwise IP-100,2014-12-21 10:03:00,
2014-12-21 02:08:00,47.3,46.0,29.64,SW,225,3.0,4.0,97,0.00,,,0.01,Rainwise IP-100,2014-12-21 10:08:00,
2014-12-21 02:13:00,47.1,46.0,29.65,SW,225,2.0,4.0,97,0.00,,,0.01,Rainwise IP-100,2014-12-21 10:13:00,
2014-12-21 02:18:00,46.9,46.0,29.64,SSW,202,2.0,4.0,97,0.00,,,0.01,Rainwise IP-100,2014-12-21 10:18:00,
2014-12-21 02:23:00,46.9,46.0,29.65,East,90,1.0,4.0,97,0.00,,,0.01,Rainwise IP-100,2014-12-21 10:23:00,
2014-12-21 02:28:00,46.7,46.0,29.65,SW,225,1.0,2.0,97,0.00,,,0.01,Rainwise IP-100,2014-12-21 10:28:00,
2014-12-21 02:33:00,46.9,46.0,29.65,SW,225,1.0,6.0,97,0.00,,,0.01,Rainwise IP-100,2014-12-21 10:33:00,
2014-12-21 02:38:00,46.7,46.0,29.66,SSW,202,1.0,2.0,97,0.00,,,0.01,Rainwise IP-100,2014-12-21 10:38:00,
2014-12-21 02:43:00,46.6,46.0,29.66,East,90,0.0,3.0,97,0.00,,,0.01,Rainwise IP-100,2014-12-21 10:43:00,
2014-12-21 02:48:00,46.5,46.0,29.67,SW,225,0.0,2.0,97,0.00,,,0.01,Rainwise IP-100,2014-12-21 10:48:00,
2014-12-21 02:53:00,46.4,45.0,29.67,SW,225,2.0,3.0,97,0.00,,,0.01,Rainwise IP-100,2014-12-21 10:53:00,
2014-12-21 02:58:00,46.3,45.0,29.67,NNE,22,1.0,2.0,97,0.00,,,0.01,Rainwise IP-100,2014-12-21 10:58:00,
2014-12-21 03:03:00,46.4,45.0,29.68,South,180,0.0,3.0,97,0.00,,,0.01,Rainwise IP-100,2014-12-21 11:03:00,
2014-12-21 03:08:00,46.3,45.0,29.68,SW,225,1.0,2.0,97,0.00,,,0.01,Rainwise IP-100,2014-12-21 11:08:00,
2014-12-21 03:13:00,46.3,45.0,29.68,SSW,202,1.0,3.0,97,0.00,,,0.01,Rainwise IP-100,2014-12-21 11:13:00,
2014-12-21 03:18:00,46.3,45.0,29.69,ENE,67,0.0,3.0,97,0.00,,,0.01,Rainwise IP-100,2014-12-21 11:18:00,
2014-12-21 03:23:00,46.3,45.0,29.69,SW,225,4.0,4.0,97,0.00,,,0.01,Rainwise IP-100,2014-12-21 11:23:00,
2014-12-21 03:28:00,46.2,45.0,29.69,SW,225,2.0,4.0,97,0.00,,,0.01,Rainwise IP-100,2014-12-21 11:28:00,
2014-12-21 03:33:00,46.2,45.0,29.69,SW,225,1.0,2.0,97,0.00,,,0.01,Rainwise IP-100,2014-12-21 11:33:00,
2014-12-21 03:38:00,46.2,45.0,29.69,SW,225,2.0,3.0,97,0.00,,,0.01,Rainwise IP-100,2014-12-21 11:38:00,
2014-12-21 03:43:00,46.2,45.0,29.69,SSW,202,0.0,3.0,97,0.00,,,0.01,Rainwise IP-100,2014-12-21 11:43:00,
2014-12-21 03:48:00,46.3,45.0,29.71,SW,225,1.0,2.0,97,0.00,,,0.01,Rainwise IP-100,2014-12-21 11:48:00,
2014-12-21 03:53:00,46.3,45.0,29.71,North,360,1.0,4.0,97,0.00,,,0.01,Rainwise IP-100,2014-12-21 11:53:00,
2014-12-21 03:58:00,46.3,45.0,29.71,SW,225,1.0,3.0,97,0.00,,,0.01,Rainwise IP-100,2014-12-21 11:58:00,
2014-12-21 04:03:00,46.5,46.0,29.70,WSW,247,0.0,7.0,97,0.00,,,0.01,Rainwise IP-100,2014-12-21 12:03:00,